Pagina principale
METAR-TAF:

METAR-TAF

Aeroporti :

Harrisburg, Pennsylvania, Stati Uniti

latitudine: 40-13-02N, longitudine: 076-51-05W, altezza: 106 m

Osservazione

Il bollettino è stato emesso 32 minuti fa, alle 17:56 UTC
Vento 9 kt da ovest/nord-ovest con raffiche fino a 17 kt
Temperature 11°C
Umidità 35%
Pressione 1029 hPa
Visibilità: 16.1 km
Cielo sereno

METAR: KCXY 181756Z 29009G17KT 10SM CLR 11/M04 A3040 RMK AO2 SLP298 T01111039 10117 20078 58009

Ora: 14:28 (18:28 UTC)


TAF: mancante

Osservazioni e previsioni meteorologiche di più di 4000 aeroporti (messaggi METAR e TAF).

Le stazioni disponibili sono rappresentate dai dischi gialli e rossi sulla carta.

Puntare il mouse per vedere il nome della stazione.

Clicca sopra per visualizzare le osservazioni e previsioni meteorologiche.

Per cambiare la mappa : fare clic sui pulsanti verdi con una croce nera per ingrandire, il pulsante verde con un trattino per diminuire, o sulla freccia verde per le mappe adiacenti.


METAR-TAF: